Showing default

IRIDE-MS2-HEO-8, 64587

Orbit data source: Space-Track

IRIDE-MS2-HEO-8, 64587 is an Italian payload satellite in SSO that was launched on Mon, 23 Jun 2025 UTC via an FALCON 9 launch vehicle from the Air Force Western Test Range (AFWTR). Payload-class satellites include a variety of spacecraft equipped with specific instruments for various scientific and technological missions. These include communications satellites like Starlink; space stations such as the ISS; scientific satellites like the Hubble; Earth observation satellites from companies like Planet Labs, Umbra, and HawkEye 360; GPS; miniature CubeSats for education and research; and military/defense satellites.

Loading next visibility...
Identifier
64587, 2025-135BM
Orbit
SSO
Country
Flag of ITIT
Related business
Manufacturer
ArgoTec
Mission
Operational Civil Imaging
Bus & Motor
HAWK, Unknown motor
Mass
65 kg wet, 65 kg dry
Launch date (UTC)
2025-06-23 (11 months ago)
Launch vehicle
FALCON 9
Launch site
Air Force Western Test Range (AFWTR)
Object type
Payload
Rocket body
Debris
Shape & HBR
Box + 2 Pan, 3.0 m
Radar Cross Section
0.683 m², Medium (>0.1 m² and < 1m²)

Expand to show TLE details & history
Last TLE update: 8 hours ago

TLE from 8 hours ago
0 IRIDE-MS2-HEO-8
1 64587U 25135BM  26133.26255757  .00001214  00000-0  12571-3 0  9997
2 64587  97.7692 248.2408 0003078 100.6478 259.5088 14.91864459 48699
Epoch: 2026-05-13T06:18Z
TLE epoch observation values (Epoch: 2026-05-13T06:18:04.974Z)
Latitude
0.00005°
Longitude
-77.30503°
Altitude
595.555 km
Speed
7.562 km/s
True Right ascension
16h 32m 57s
True Declination
0° 00' 00"
Sunlit
Object was in full shadow at epoch
Visualization orbit readout
Latitude
Unknown
Longitude
Unknown
Altitude
Unknown
Speed
Unknown
Apparent Right ascension
Unknown
Apparent Declination
Unknown
Sunlit
N/A
Visualization observer readout
Local Sidereal Time
22:52:20
Azimuth
Unknown
Elevation
Unknown
Doppler factor
Unknown
Orbital elements
Apogee altitude
591.286 km
Perigee altitude
586.997 km
Semi-major axis
6,967.278 km
Eccentricity
0.00031
Inclination
97.7692°
RAAN
248.2408°
Arg. of periapsis
100.6478°
True anomaly
259.47412°
Mean anomaly
259.5088°
Eccentric anomaly
259.49146°
Mean motion
3.73206 °/min
Orbital period
96.46 mins
BSTAR
0.00012571
Loading maneuver chart data...
Computing Atmospheric mass density...
Loading historical data...
Loading historical data...
Loading historical data...
Loading historical data...
Loading historical data...
Loading historical data...
Loading historical data...

Documentation

Showing up to 5 results
|